Weather History for Buckhannon, WV

Change the Weather History Date:

Friday, January 3, 2014

  Actual Average (KEKN) Record (KEKN)
Temperature  
Mean Temperature 10 °F 29 °F  
Max Temperature 15 °F 39 °F 67 °F (2000)
Min Temperature 5 °F 20 °F -8 °F (2001)
Degree Days  
Heating Degree Days 55 36  
Month to date heating degree days 108  
Since 1 July heating degree days 2399  
Cooling Degree Days 0 0  
Month to date cooling degree days 0  
Year to date cooling degree days 0  
Moisture  
Dew Point 7 °F    
Average Humidity 84    
Maximum Humidity 93    
Minimum Humidity 67    
Precipitation  
Precipitation 4.88 in 0.10 in 0.93 in (1913)
Month to date precipitation 0.30  
Year to date precipitation 0.30  
Snow  
Snow 0.00 in - - ()
Month to date snowfall  
Since 1 September snowfall  
Snow Depth -    
Sea Level Pressure  
Sea Level Pressure 30.26 in    
Wind  
Wind Speed 0 mph (North)    
Max Wind Speed 0 mph    
Max Gust Speed -    
Visibility 6 miles    
Events Rain , Snow    
T = Trace of Precipitation, MM = Missing Value Source: NWS Daily Summary

Daily Weather History Graph

Daily Weather History Graph

Search for Another Location

Airport:

Trip Planner

Search our weather history database for the weather conditions in past years. The results will help you decide how hot, cold, wet, or windy it might be!

Date:

Astronomy

Jan. 03, 2014 Rise Set
Actual Time 7:40 AM EST 5:11 PM EST
Civil Twilight 7:10 AM EST 5:41 PM EST
Nautical Twilight 6:37 AM EST 6:14 PM EST
Astronomical Twilight 6:04 AM EST 6:46 PM EST
Moon 9:06 AM EST (1/3) 8:16 PM EST (1/3)
Length of Visible Light 10h 30m
Length of Day
9h 31m
Waxing Crescent, 8% of the Moon is Illuminated
Jan 3
Waxing Crescent
Jan 7
First Quarter
Jan 15
Full
Jan 24
Last Quarter
Jan 30
New

Hourly Weather History & Observations

Time (EST) Temp. Dew Point Humidity Pressure Visibility Wind Dir Wind Speed Gust Speed Precip Events Conditions
12:15 AM 15.8 °F 14.0 °F 93% 29.91 in 0.8 mi Calm Calm - 1.21 in Snow Heavy Snow
12:35 AM 14.0 °F 12.2 °F 93% 29.92 in 1.2 mi Calm Calm - 1.92 in Snow Light Snow
12:55 AM 14.0 °F 10.4 °F 86% 29.93 in 1.8 mi Calm Calm - 2.33 in Snow Snow
1:15 AM 12.2 °F 10.4 °F 92% 29.96 in 1.5 mi Calm Calm - 0.24 in Snow Light Snow
1:35 AM 12.2 °F 10.4 °F 92% 29.97 in 1.5 mi Calm Calm - 0.50 in Snow Light Snow
1:55 AM 12.2 °F 10.4 °F 92% 29.99 in 1.0 mi Calm Calm - 1.06 in Snow Snow
2:15 AM 12.2 °F 10.4 °F 92% 30.01 in 2.5 mi Calm Calm - 0.08 in Rain Light Freezing Rain
2:35 AM 12.2 °F 10.4 °F 92% 30.03 in 2.5 mi Calm Calm - 0.24 in Snow Light Snow
2:55 AM 12.2 °F 8.6 °F 85% 30.04 in 3.0 mi Calm Calm - 0.28 in Snow Light Snow
3:15 AM 12.2 °F 8.6 °F 85% 30.06 in 2.5 mi Calm Calm - 0.05 in Snow Light Snow
3:35 AM 12.2 °F 8.6 °F 85% 30.07 in 2.5 mi Calm Calm - 0.11 in Snow Light Snow
3:55 AM 12.2 °F 8.6 °F 85% 30.09 in 4.0 mi Calm Calm - 0.17 in Snow Light Snow
4:15 AM 12.2 °F 8.6 °F 85% 30.10 in 10.0 mi Calm Calm - N/A Snow Light Snow
4:35 AM 10.4 °F 6.8 °F 85% 30.11 in 5.0 mi Calm Calm - 0.01 in Snow Light Snow
4:55 AM 10.4 °F 5.0 °F 79% 30.13 in 10.0 mi Calm Calm - 0.01 in Snow Light Snow
5:15 AM 10.4 °F 5.0 °F 79% 30.15 in 10.0 mi Calm Calm - N/A   Mostly Cloudy
5:35 AM 10.4 °F 6.8 °F 85% 30.17 in 4.0 mi Calm Calm - 0.01 in Snow Light Snow
5:55 AM 10.4 °F 8.6 °F 92% 30.18 in 3.0 mi Calm Calm - 0.06 in Snow Light Snow
6:15 AM 10.4 °F 8.6 °F 92% 30.19 in 4.0 mi Calm Calm - 0.01 in Snow Light Snow
6:35 AM 12.2 °F 8.6 °F 85% 30.21 in 2.0 mi Calm Calm - 0.09 in Snow Light Snow
6:55 AM 12.2 °F 8.6 °F 85% 30.22 in 2.0 mi Calm Calm - 0.17 in Snow Light Snow
7:15 AM 12.2 °F 8.6 °F 85% 30.23 in 1.8 mi Calm Calm - 0.08 in Snow Light Snow
7:35 AM 10.4 °F 8.6 °F 92% 30.24 in 1.5 mi Calm Calm - 0.22 in Snow Light Snow
7:55 AM 10.4 °F 6.8 °F 85% 30.25 in 1.8 mi Calm Calm - 0.26 in Snow Light Snow
8:15 AM 10.4 °F 6.8 °F 85% 30.27 in 4.0 mi Calm Calm - N/A Snow Light Snow
8:35 AM 10.4 °F 5.0 °F 79% 30.28 in 6.0 mi Calm Calm - N/A Snow Light Snow
8:55 AM 10.4 °F 6.8 °F 85% 30.30 in 1.5 mi Calm Calm - 0.03 in Snow Light Snow
9:15 AM 12.2 °F 8.6 °F 85% 30.31 in 1.5 mi Calm Calm - 0.04 in Snow Light Snow
9:35 AM 12.2 °F 8.6 °F 85% 30.31 in 2.0 mi Calm Calm - 0.05 in Snow Light Snow
9:55 AM 12.2 °F 8.6 °F 85% 30.32 in 2.5 mi Calm Calm - 0.07 in Snow Light Snow
10:15 AM 12.2 °F 8.6 °F 85% 30.32 in 1.2 mi Calm Calm - 0.03 in Snow Light Snow
10:35 AM 12.2 °F 8.6 °F 85% 30.33 in 3.0 mi Calm Calm - 0.04 in Snow Light Snow
10:55 AM 12.2 °F 8.6 °F 85% 30.33 in 0.5 mi Calm Calm - 0.27 in Snow Light Snow
11:15 AM 12.2 °F 6.8 °F 79% 30.32 in 4.0 mi Calm Calm - N/A   Haze
11:35 AM 12.2 °F 5.0 °F 73% 30.32 in 10.0 mi Calm Calm - N/A   Scattered Clouds
11:55 AM 12.2 °F 6.8 °F 79% 30.31 in 4.0 mi Calm Calm - 0.01 in Snow Light Snow
12:15 PM 12.2 °F 6.8 °F 79% 30.31 in 3.0 mi Calm Calm - 0.01 in Snow Light Snow
12:35 PM 12.2 °F 5.0 °F 73% 30.31 in 10.0 mi Calm Calm - 0.01 in   Scattered Clouds
12:55 PM 14.0 °F 5.0 °F 67% 30.31 in 10.0 mi Calm Calm - 0.01 in   Mostly Cloudy
1:15 PM 14.0 °F 6.8 °F 73% 30.31 in 8.0 mi Calm Calm - N/A Snow Light Snow
1:35 PM 14.0 °F 8.6 °F 79% 30.31 in 8.0 mi Calm Calm - N/A Snow Light Snow
1:55 PM 14.0 °F 8.6 °F 79% 30.31 in 2.5 mi Calm Calm - 0.02 in Snow Light Snow
2:15 PM 14.0 °F 8.6 °F 79% 30.33 in 2.5 mi Calm Calm - 0.03 in   Haze
2:35 PM 14.0 °F 8.6 °F 79% 30.34 in 3.0 mi Calm Calm - 0.04 in Snow Light Snow
2:55 PM 12.2 °F 8.6 °F 85% 30.35 in 3.0 mi Calm Calm - 0.05 in   Haze
3:15 PM 12.2 °F 8.6 °F 85% 30.36 in 1.5 mi Calm Calm - 0.02 in Snow Light Snow
3:35 PM 12.2 °F 8.6 °F 85% 30.38 in 1.5 mi Calm Calm - 0.05 in Snow Light Snow
3:55 PM 12.2 °F 8.6 °F 85% 30.37 in 3.0 mi Calm Calm - 0.08 in Snow Light Snow
4:15 PM 12.2 °F 6.8 °F 79% 30.37 in 3.0 mi Calm Calm - N/A Snow Light Snow
4:35 PM 12.2 °F 6.8 °F 79% 30.38 in 10.0 mi Calm Calm - N/A   Mostly Cloudy
4:55 PM 12.2 °F 5.0 °F 73% 30.38 in 10.0 mi Calm Calm - N/A   Scattered Clouds
5:15 PM 10.4 °F 5.0 °F 79% 30.38 in 10.0 mi Calm Calm - N/A   Partly Cloudy
5:35 PM 10.4 °F 5.0 °F 79% 30.38 in 10.0 mi Calm Calm - N/A   Partly Cloudy
5:55 PM 10.4 °F 5.0 °F 79% 30.38 in 10.0 mi Calm Calm - N/A   Partly Cloudy
6:15 PM 10.4 °F 5.0 °F 79% 30.39 in 10.0 mi Calm Calm - N/A   Scattered Clouds
6:35 PM 10.4 °F 5.0 °F 79% 30.39 in 10.0 mi Calm Calm - N/A   Scattered Clouds
6:55 PM 8.6 °F 5.0 °F 85% 30.39 in 10.0 mi Calm Calm - N/A   Partly Cloudy
7:15 PM 8.6 °F 5.0 °F 85% 30.39 in 10.0 mi Calm Calm - N/A   Clear
7:35 PM 8.6 °F 5.0 °F 85% 30.38 in 10.0 mi Calm Calm - N/A   Clear
7:55 PM 8.6 °F 5.0 °F 85% 30.38 in 10.0 mi Calm Calm - N/A   Clear
8:15 PM 8.6 °F 5.0 °F 85% 30.38 in 10.0 mi Calm Calm - N/A   Clear
8:35 PM 8.6 °F 5.0 °F 85% 30.37 in 10.0 mi Calm Calm - N/A   Clear
8:55 PM 8.6 °F 5.0 °F 85% 30.36 in 10.0 mi Calm Calm - N/A   Clear
9:15 PM 5.0 °F 3.2 °F 92% 30.35 in 10.0 mi Calm Calm - N/A   Clear
9:35 PM 8.6 °F 3.2 °F 79% 30.34 in 10.0 mi Calm Calm - N/A   Clear
9:55 PM 6.8 °F 3.2 °F 85% 30.32 in 10.0 mi Calm Calm - N/A   Clear
10:15 PM 6.8 °F 3.2 °F 85% 30.32 in 10.0 mi Calm Calm - N/A   Clear
10:35 PM 6.8 °F 3.2 °F 85% 30.32 in 10.0 mi Calm Calm - N/A   Clear
10:55 PM 5.0 °F 3.2 °F 92% 30.31 in 10.0 mi Calm Calm - N/A   Clear
11:15 PM 5.0 °F 3.2 °F 92% 30.31 in 10.0 mi Calm Calm - N/A   Clear
11:35 PM 5.0 °F 1.4 °F 85% 30.30 in 10.0 mi Calm Calm - N/A   Clear
11:55 PM 5.0 °F 1.4 °F 85% 30.29 in 10.0 mi Calm Calm - N/A   Clear